Date,TemperatureHighF,TemperatureAvgF,TemperatureLowF,DewpointHighF,DewpointAvgF,DewpointLowF,HumidityHigh,HumidityAvg,HumidityLow,PressureMaxIn,PressureMinIn,WindSpeedMaxMPH,WindSpeedAvgMPH,GustSpeedMaxMPH,PrecipitationSumIn
2012-12-1,47,41,38,42,38,34,97,87,82,30.13,30.05,5,1,11,0.00
2012-12-2,51,45,38,49,43,38,100,95,82,30.07,29.79,3,1,10,0.04
2012-12-3,65,55,47,53,50,47,98,86,64,29.91,29.79,3,1,10,0.00
2012-12-4,66,57,50,57,53,48,98,85,71,29.91,29.65,6,1,12,0.00
2012-12-5,57,50,35,53,39,22,87,66,49,29.92,29.61,8,2,20,0.00
2012-12-6,43,34,28,26,21,19,83,62,42,30.03,29.93,4,1,11,0.00
2012-12-7,42,37,29,42,35,26,98,93,85,29.93,29.68,1,0,4,0.15
2012-12-8,52,46,41,50,46,41,99,98,92,29.68,29.55,3,1,6,0.10
2012-12-9,48,44,41,48,44,40,99,97,92,29.90,29.67,5,1,13,0.29
2012-12-10,59,52,42,59,52,42,100,99,97,29.63,29.24,4,1,11,0.01
2012-12-11,57,45,36,57,38,30,99,78,56,29.86,29.26,5,2,16,0.01
2012-12-12,45,37,31,31,28,27,90,72,53,30.09,29.87,3,1,9,0.00
2012-12-13,46,37,30,28,26,24,84,66,44,30.11,30.00,5,0,9,0.00
2012-12-14,51,38,27,28,27,24,91,66,39,29.98,29.84,4,1,12,0.00
2012-12-15,48,40,32,38,32,27,88,75,58,29.98,29.84,4,1,7,0.00
2012-12-16,51,46,41,48,43,38,98,91,81,29.84,29.55,4,1,9,0.10
2012-12-17,45,43,41,44,43,41,100,99,99,29.55,29.27,6,3,11,0.04
2012-12-18,57,48,41,50,43,32,100,86,63,29.37,29.15,15,4,23,0.24
2012-12-19,49,42,37,34,32,29,81,66,55,29.81,29.38,15,3,22,0.00
2012-12-20,44,38,30,43,32,27,97,80,67,29.87,29.33,10,2,18,0.24
2012-12-21,52,43,36,51,38,28,100,82,67,29.29,28.83,13,6,24,0.72
2012-12-22,41,37,34,32,26,23,91,66,50,29.57,29.08,12,7,28,0.00
2012-12-23,46,37,32,26,23,17,74,58,32,29.68,29.55,8,3,16,0.00
2012-12-24,39,33,27,33,27,23,98,78,57,29.75,29.58,3,0,9,0.04
2012-12-25,40,36,34,35,32,27,98,87,75,29.92,29.55,6,1,10,0.11
2012-12-26,40,32,27,39,29,24,97,89,80,29.94,29.05,9,3,32,0.81
2012-12-27,40,36,33,38,31,25,96,81,69,29.57,28.96,15,5,29,0.00
2012-12-28,39,34,29,28,25,23,83,72,61,29.76,29.58,7,2,15,0.00
2012-12-29,33,30,28,32,27,23,96,88,79,29.70,29.20,8,2,15,0.00
2012-12-30,37,33,30,27,24,21,85,70,53,29.74,29.35,8,3,27,0.05
2012-12-31,41,38,36,31,27,25,68,66,64,29.69,29.60,5,2,17,0.01